Satellite-Ground Cal/Val Region Overpasses Predictions

Prediction of Satellite NPP Overpassing Cal/Val Region: PacNW

Region Location: (Latitude: 10.00, Longitude: 139.50) to (Latitude: 22.70, Longitude: 165.60).

Table of predicted overpasses for the next 14.0 days since TLE Epoch: 8/25/2018
Interval Starting Time Starting Location Ending Time Ending Location
1 08/25/2018 15:24:06 ( 22.65, 153.99) 08/25/2018 15:27:41 ( 10.04, 150.99)
2 08/26/2018 02:33:11 ( 10.01, 161.52) 08/26/2018 02:36:47 ( 22.69, 158.50)
3 08/26/2018 15:05:05 ( 22.67, 158.75) 08/26/2018 15:08:40 ( 10.05, 155.75)
4 08/27/2018 02:15:00 ( 12.99, 165.59) 08/27/2018 02:17:45 ( 22.68, 163.26)
5 08/27/2018 03:55:39 ( 10.00, 140.90) 08/27/2018 03:57:21 ( 15.99, 139.51)
6 08/27/2018 14:46:03 ( 22.68, 163.51) 08/27/2018 14:49:39 ( 10.00, 160.49)
7 08/28/2018 03:36:39 ( 10.05, 145.65) 08/28/2018 03:40:14 ( 22.67, 142.64)
8 08/28/2018 14:30:13 ( 11.48, 165.59) 08/28/2018 14:30:38 ( 10.01, 165.25)
9 08/28/2018 16:08:32 ( 22.69, 142.90) 08/28/2018 16:12:08 ( 10.01, 139.88)
10 08/29/2018 03:17:38 ( 10.04, 150.41) 08/29/2018 03:21:13 ( 22.66, 147.40)
11 08/29/2018 15:49:30 ( 22.70, 147.66) 08/29/2018 15:53:06 ( 10.02, 144.64)
12 08/30/2018 02:58:36 ( 10.03, 155.16) 08/30/2018 03:02:11 ( 22.65, 152.16)
13 08/30/2018 15:30:30 ( 22.65, 152.40) 08/30/2018 15:34:05 ( 10.03, 149.40)
14 08/31/2018 02:39:35 ( 10.02, 159.92) 08/31/2018 02:43:11 ( 22.70, 156.90)
15 08/31/2018 15:11:28 ( 22.66, 157.16) 08/31/2018 15:15:03 ( 10.05, 154.15)
16 09/01/2018 02:20:33 ( 10.01, 164.68) 09/01/2018 02:24:09 ( 22.69, 161.66)
17 09/01/2018 14:52:27 ( 22.68, 161.92) 09/01/2018 14:56:02 ( 10.06, 158.91)
18 09/02/2018 03:43:03 ( 10.06, 144.05) 09/02/2018 03:46:38 ( 22.68, 141.05)
19 09/02/2018 14:34:40 ( 18.29, 165.60) 09/02/2018 14:37:01 ( 10.01, 163.66)
20 09/02/2018 16:14:55 ( 22.68, 141.30) 09/02/2018 16:17:01 ( 15.29, 139.51)
21 09/03/2018 03:24:01 ( 10.05, 148.81) 09/03/2018 03:27:36 ( 22.67, 145.81)
22 09/03/2018 15:55:54 ( 22.69, 146.06) 09/03/2018 15:59:30 ( 10.02, 143.04)
23 09/04/2018 03:05:00 ( 10.04, 153.57) 09/04/2018 03:08:35 ( 22.66, 150.56)
24 09/04/2018 15:36:53 ( 22.65, 150.81) 09/04/2018 15:40:28 ( 10.03, 147.80)
25 09/05/2018 02:45:58 ( 10.03, 158.33) 09/05/2018 02:49:33 ( 22.65, 155.32)
26 09/05/2018 15:17:52 ( 22.66, 155.56) 09/05/2018 15:21:27 ( 10.04, 152.56)
27 09/06/2018 02:26:57 ( 10.02, 163.09) 09/06/2018 02:30:33 ( 22.70, 160.07)
28 09/06/2018 14:58:51 ( 22.67, 160.32) 09/06/2018 15:02:26 ( 10.05, 157.32)
29 09/07/2018 02:10:38 ( 19.58, 165.59) 09/07/2018 02:11:31 ( 22.69, 164.83)
30 09/07/2018 03:49:25 ( 10.01, 142.47) 09/07/2018 03:52:57 ( 22.46, 139.51)
31 09/07/2018 14:39:49 ( 22.68, 165.08) 09/07/2018 14:43:25 ( 10.00, 162.06)
32 09/07/2018 16:21:19 ( 22.68, 139.71) 09/07/2018 16:21:33 ( 21.85, 139.50)


NCC Satellite Cal/Val Overpasses Prediction Service
